Regional Weather Roundup
Issued by NWS

Home | Current Version | Previous Version | Graphics & Text | Print | Product List | Glossary On
Versions: 1 2 3 4 5 6 7 8 9 10 11 12 13 14 15 16 17 18 19 20 21 22 23 24 25 26 27 28 29 30 31 32 33 34 35 36 37 38 39 40 41 42 43 44 45 46 47 48 49 50
000
ASUS43 KMKX 230111
RWRWI

WISCONSIN REGIONAL WEATHER ROUNDUP
NATIONAL WEATHER SERVICE MILWAUKEE/SULLIVAN WI
700 PM CST SAT NOV 22 2014

NOTE: "FAIR" INDICATES FEW OR NO CLOUDS BELOW 12,000 FEET WITH NO
SIGNIFICANT WEATHER AND/OR OBSTRUCTIONS TO VISIBILITY.

WIZ001-002-006>008-014>016-023>028-230200-
NORTHWEST WISCONSIN

CITY           SKY/WX    TMP DP  RH WIND       PRES   REMARKS
SUPERIOR ARPT  CLOUDY    35  32  90 S7        29.63R WCI  29
ASHLAND        CLOUDY    35  31  85 VRB3      29.65F
HAYWARD        CLOUDY    34  31  88 S9        29.64F WCI  27
SIREN          CLOUDY    34  33  96 S9        29.63F FOG     WCI  26
CUMBERLAND     FOG       32  32 100 S9        29.64F VSB 1   WCI  24
RICE LAKE      FOG       35  34  96 SE9       29.67F VSB 1   WCI  27
CHETEK         CLOUDY    35  34  99 SE8       29.67S FOG     WCI  28
LADYSMITH      CLOUDY    36  35  97 S6        29.68F FOG     WCI  31
EAU CLAIRE     CLOUDY    36  34  92 S7        29.68F FOG     WCI  30
MENOMONIE      FOG       36  35  96 E6        29.68S VSB 1   WCI  31
NEW RICHMOND   CLOUDY    35  35 100 SE8       29.64S FOG     WCI  28
OSCEOLA        CLOUDY    35  35 100 S10       29.66R FOG     WCI  27
$$

WIZ003>005-009-010-017-018-230200-
NORTH CENTRAL WISCONSIN

CITY           SKY/WX    TMP DP  RH WIND       PRES   REMARKS
MANITOWISH WTR CLOUDY    32  32 100 S6        29.66F WCI  26
ARBOR VITAE    CLOUDY    34  32  93 S6        29.68S WCI  29
WOODRUFF       CLOUDY    34  32  93 S6        29.68S WCI  29
RHINELANDER    CLOUDY    33  33 100 SW5       29.69F FOG     WCI  29
EAGLE RIVER    CLOUDY    32  32  99 CALM      29.67F FOG
LAND O LAKES   CLOUDY    33  32  96 S7        29.68F FOG     WCI  26
PHILLIPS       CLOUDY    33  33  99 S7        29.67R FOG     WCI  27
TOMAHAWK       CLOUDY    34  33  95 CALM      29.69F FOG
MEDFORD        CLOUDY    34  34  99 S8        29.68F FOG     WCI  27
MERRILL        FOG       34  34 100 S3        29.71S VSB 3/4
$$

WIZ029-030-035-036-043>047-230200-
CENTRAL WISCONSIN

CITY           SKY/WX    TMP DP  RH WIND       PRES   REMARKS
WAUSAU         FOG       34  34 100 S7        29.72S VSB 1/4 WCI  28
MOSINEE        SNOW      34  34 100 S7        29.72F VSB 1/4 WCI  28
MARSHFIELD     FOG       36  35  96 S6        29.71F VSB 1/2 WCI  31
STEVENS POINT  FOG       35  35  99 S7        29.75R VSB 1   WCI  29
WAUPACA        CLOUDY    40  38  91 S3        29.77S FOG
WAUTOMA        CLOUDY    40  40 100 CALM      29.76F FOG
WISC RAPIDS    CLOUDY    37  36  96 S5        29.75F WCI  33
CAMP DOUGLAS   FOG       39  39 100 E5        29.73S VSB 1
$$

WIZ011>013-019>022-031-037>040-048>050-230200-
NORTHEAST WISCONSIN

CITY           SKY/WX    TMP DP  RH WIND       PRES   REMARKS
ANTIGO         FOG       33  33 100 S5        29.71F VSB 1/2 WCI  28
SHAWANO        CLOUDY    38  36  92 CALM      29.77R FOG
OCONTO         CLOUDY    37  37 100 SW8       29.77R WCI  30
STURGEON BAY   CLOUDY    37  36  93 S8        29.77F WCI  31
GREEN BAY      CLOUDY    38  37  97 S8        29.78S FOG     WCI  32
MANITOWOC      CLOUDY    42  41  96 SW7       29.81R
APPLETON         N/A     37  37 100 VRB5      29.78S FOG     WCI  34
CLINTONVILLE   FOG       36  36 100 S5        29.77R VSB 3/4 WCI  32
OSHKOSH        CLOUDY    41  39  93 S6        29.78F FOG
$$

WIZ032>034-041-042-053>061-230200-
SOUTHWEST WISCONSIN

CITY           SKY/WX    TMP DP  RH WIND       PRES   REMARKS
LA CROSSE      CLOUDY    40  39  97 E8        29.70F FOG     WCI  34
SPARTA         FOG       37  37 100 CALM      29.73S VSB 1/2
VIROQUA        CLOUDY    40  40 100 SE9       29.71S VSB 3/4 WCI  34
BOSCOBEL       CLOUDY    41  38  89 CALM      29.73F FOG
PRAIRIE DU CHI CLOUDY    48  44  85 CALM      29.72F
PLATTEVILLE    CLOUDY    47  47  97 S13       29.77S
$$

WIZ056-057-062-063-064-067-068-230200-
SOUTH CENTRAL WISCONSIN

CITY           SKY/WX    TMP DP  RH WIND       PRES   REMARKS
REEDSBURG      CLOUDY    40  40  99 CALM      29.73F FOG
BARABOO/DELLS  CLOUDY    42  41  96 S7        29.74F FOG
LONE ROCK      CLOUDY    46  41  82 E5        29.75F
MINERAL POINT  FOG       46  45  93 S10       29.76S VSB 1/4
MADISON        CLOUDY    45  43  93 S7        29.77F FOG
MIDDLETON      CLOUDY    47  46  97 S3        29.77S
WATERTOWN      CLOUDY    44  44 100 SE3       29.79F FOG
MONROE         CLOUDY    46  46 100 S14G21    29.78S
JANESVILLE     CLOUDY    46  45  93 S8        29.80S FOG
$$

WIZ051-052-058>065-066-070>072-230200-
SOUTHEAST WISCONSIN

CITY           SKY/WX    TMP DP  RH WIND       PRES   REMARKS
MILWAUKEE      MOCLDY    46  42  86 SW8       29.82S
WAUKESHA       CLOUDY    45  43  93 S8        29.82S FOG
MILWAUKEE/TIMM CLOUDY    46  43  87 SW7       29.82R FOG
RACINE         MOCLDY    47  43  86 SW9       29.84S
BURLINGTON     MOCLDY    44  43  96 S7        29.82S
KENOSHA        MOCLDY    48  45  89 S7        29.83S
FOND DU LAC    CLOUDY    41  39  93 S7        29.79S FOG
SHEBOYGAN      CLOUDY    40  39  97 S6        29.81R FOG
WEST BEND      CLOUDY    45  41  87 CALM      29.80S
JUNEAU         CLOUDY    43  42  97 S5        29.79F FOG
$$

LSZ147-162-230200-
LAKE SUPERIOR

STATION/POSITION TIME  TEMP    WIND        PRES    WAVE
                       AIR SEA DIR/SP/G            HT/PER
                 (UTC) (F)     (DEG/KT/KT) (MB)    (FT/S)
DEVILS ISLAND    0100   36     150/  4/  5 1004.3F
PORT WING        0000   36     160/  5/  9 1004.1F
SAXON HARBOR     0000   36     190/  6/ 12 1005.1S
$$

LMZ867-665-643>646-230200-
LAKE MICHIGAN

STATION/POSITION TIME  TEMP    WIND        PRES    WAVE
                       AIR SEA DIR/SP/G            HT/PER
                 (UTC) (F)     (DEG/KT/KT) (MB)    (FT/S)
CHAMBERS ISLAND  0000   38     200/  4/ 10 1008.1R
N MID LAKE BUOY  0050   40 42  250/ 16/ 17 1008.6R   5/ 7
NORTHPORT PIER   0000   38     210/  4/ 10 1008.1R
SISTER BAY       0028          230/  8/ 10   N/A
KEWAUNEE LAKESHO 0000   40     220/  3/  4 1008.0R
SHEBOYGAN LAKESH 0100   44 36  190/  3/  3 1010.1S
PORT WASHINGTON  0040   45     240/  2/  4 1010.5R
ATWATER BUOY     0000   46      CALM  /  2 1010.1F
MILWAUKEE LAKESH 0000   47     230/  7/  8   N/A
S MID LAKE BUOY  0050   46 42  190/ 16/ 17 1011.0R   3/ 5
KENOSHA   LAKESH 0100   49     200/  7/  9 1010.2S
$$

TC  - TEMPERATURE IN CELSIUS
VSB - VISIBILITY IN STATUTE MILES
WCI - WIND CHILL INDEX
HX  - HEAT INDEX




USA.gov is the U.S. government's official web portal to all federal, state and local government web resources and services.